Home   Weather   Thule Air Base   Past weeks
Flag for Greenland

Past Weather in Thule Air Base, Greenland — Yesterday and Last 2 Weeks

Now
7 °F

Overcast.


Feels Like: -11 °F
Forecast: N/A
Wind: 15 mph from South

Location: Thule A. B.

Current Time: Dec 11, 2018 at 4:19:34 pm

Latest Report: Dec 11, 2018 at 3:26 pm


Visibility: N/A

Pressure: 29.33 "Hg

Humidity: 66%

Dew Point: -2 °F

Location of Thule Air BaseLocation

Past Weather in Thule Air Base — Graph

°F

Thule Air Base Temperature Yesterday

Maximum temperature yesterday: 1 °F (at 7:26 pm)
Minimum temperature yesterday: -4 °F (at 12:56 am)
Average temperature yesterday: -2 °F

High & Low Weather Summary for the Past Weeks

 TemperatureHumidityPressure
High14 °F (Dec 6, 5:56 am)100% (Nov 28, 4:56 pm)30.63 "Hg (Nov 28, 4:56 pm)
Low-17 °F (Nov 26, 3:56 pm)61% (Dec 5, 9:56 am)29.31 "Hg (Dec 6, 4:56 am)
Average-1 °F84%29.77 "Hg
* Reported Nov 26 1:56 pm — Dec 11 1:56 pm, Thule Air Base. Weather by CustomWeather, © 2018

Note: Actual official high and low records may vary slightly from our data, if they occured in-between our weather recording intervals... More about our weather records

Advertising

Thule Air Base Weather History for the Previous 24 Hours

Scroll right to see more
 ConditionsComfort  
Time TempWeatherWind HumidityBarometerVisibility
1:56 pm
Tue, Dec 11
7 °FOvercast.20 mph72%29.33 "HgN/A
12:56 pm7 °FPartly sunny.29 mph72%29.33 "HgN/A
12:42 pm9 °FOvercast.16 mph66%29.36 "HgN/A
11:56 am7 °FOvercast.21 mph66%29.39 "HgN/A
10:56 am5 °FOvercast.21 mph72%29.41 "HgN/A
9:56 am7 °FScattered clouds.16 mph66%29.44 "HgN/A
8:56 am7 °FOvercast.10 mph66%29.46 "HgN/A
8:30 am5 °FOvercast.12 mph78%29.47 "HgN/A
7:59 am5 °FOvercast.13 mph78%29.49 "HgN/A
7:56 am5 °FOvercast.9 mph78%29.50 "HgN/A
7:12 am5 °FOvercast.21 mph78%29.49 "HgN/A
6:56 am5 °FOvercast.23 mph78%29.47 "HgN/A
5:56 am7 °FOvercast.22 mph72%29.50 "HgN/A
5:40 am9 °FOvercast.14 mph66%29.51 "HgN/A
5:33 am9 °FPassing clouds.15 mph66%29.51 "HgN/A
4:58 am7 °FPassing clouds.15 mph66%29.53 "HgN/A
4:56 am5 °FPassing clouds.9 mph72%29.54 "HgN/A
4:36 am3 °FPassing clouds.21 mph72%29.55 "HgN/A
4:16 am5 °FPassing clouds.17 mph72%29.57 "HgN/A
3:56 am5 °FOvercast.8 mph72%29.58 "HgN/A
3:18 am7 °FOvercast.22 mph61%29.58 "HgN/A
1:56 am4 °FOvercast.21 mph72%29.64 "HgN/A
1:14 am3 °FScattered clouds.12 mph78%29.64 "HgN/A
12:56 am1 °FIce fog.24 mph85%29.65 "Hg5 mi
11:56 pm
Mon, Dec 10
1 °FClear.17 mph85%29.67 "HgN/A
11:26 pm1 °FIce fog.30 mph85%29.68 "Hg4 mi
11:06 pm1 °FIce fog.37 mph85%29.67 "Hg2 mi
10:56 pm1 °FClear.35 mph85%29.67 "Hg2 mi
10:26 pm1 °FIce fog.31 mph85%29.68 "Hg3 mi
10:06 pm1 °FIce fog.35 mph85%29.69 "Hg2 mi
8:56 pm1 °FHaze.31 mph85%29.73 "Hg4 mi
7:56 pm1 °FHaze.33 mph85%29.75 "Hg2 mi
7:26 pm1 °FIce fog.43 mph85%29.74 "Hg1 mi
7:16 pm0 °FIce fog.43 mph92%29.74 "Hg1 mi
6:56 pm-1 °FIce fog.43 mph84%29.76 "Hg1 mi
6:31 pm0 °FIce fog.44 mph84%29.77 "Hg1 mi
5:56 pm0 °FIce fog.45 mph84%29.78 "Hg1 mi
5:36 pm0 °FIce fog.44 mph92%29.80 "Hg1 mi
5:16 pm0 °FIce fog.39 mph84%29.82 "Hg1 mi
4:56 pm-1 °FIce fog.46 mph89%29.81 "Hg1 mi
4:26 pm-2 °FIce fog.44 mph92%29.81 "Hg1 mi
Weather by CustomWeather, © 2018

See weather overview